Current Version              Previous Version:    01  02  03  04  05  06  07  08  09  10  11  12  13  14  15  16  17  18  19  20  21  22  23  24  25  26  27  28  29  30  
   31  32  33  34  35  36  37  38  39  40  41  42  43  44  45  46  47  48  49  50  51  52  53  54  55  56  57  58  59  60  

[Printable]
820
ASUS44 KEWX 240302
RWRTX
SOUTH TEXAS REGIONAL WEATHER ROUNDUP
NATIONAL WEATHER SERVICE AUSTIN/SAN ANTONIO TX
900 PM CST SUN NOV 23 2014

NOTE: "FAIR" INDICATED FEW OR NO CLOUDS BELOW 12,000 FEET WITH NO
SIGNIFICANT WEATHER AND/OR OBSTRUCTIONS TO VISIBILITY.

* - THESE STATIONS ARE NOT NWS OR FAA STATIONS...AND ARE NOT SUBJECT
    TO NWS AND FAA QUALITY CONTROL.

TXZ171-172-183>190-240400-
TEXAS HILL COUNTRY AND EDWARDS PLATEAU

CITY           SKY/WX    TMP DP  RH WIND       PRES   REMARKS
JUNCTION       CLEAR     64  33  31 N14G22    29.78R
*LLANO         CLEAR     64  39  39 N20G26    29.76R
BURNET         CLEAR     62  38  40 N13G23    29.77R
*HORSESHOE BAY CLEAR     62  37  39 NW8G18    29.72R
*KERRVILLE     CLEAR     52  41  67 CALM      29.74R
*FREDERICKSBRG CLEAR     57  38  48 CALM      29.74R
*ROCKSPRINGS   CLEAR     63  30  29 MISG      29.80R
*BOERNE STAGE  CLEAR     59  37  44 W5        29.74R
*CASTROVILLE   CLEAR     64  43  46 NW8       29.73R
HONDO          CLEAR     54  42  64 NW8       29.74R
*UVALDE        CLEAR     63  42  46 W3        29.74R
DEL RIO        CLEAR     68  35  29 NW10      29.75R
LAUGHLIN AFB   CLEAR     57  46  66 NW12      29.76R
CARRIZO SPRGS  CLEAR     63  46  55 W6        29.71R
$$

TXZ173-191>194-202-209-217>225-228-240400-
CENTRAL AND SOUTH CENTRAL TEXAS

CITY           SKY/WX    TMP DP  RH WIND       PRES   REMARKS
GEORGETOWN     NOT AVBL
AUSTIN/BERGSTM CLEAR     59  47  64 SW6       29.68R
AUSTIN/MABRY   CLEAR     65  43  44 N14G21    29.71R
*AUSTIN/EXEC   MOCLDY    64  41  42 W7        29.67R
*LAGO VISTA    CLEAR     67  35  30 N9G17     29.71R
SAN MARCOS     CLEAR     59  46  63 W3        29.69R
NEW BRAUNFELS  CLEAR     60  48  64 W6        29.68R
RANDOLPH AFB   CLEAR     65  45  48 W7        29.70R
PT SAN ANTONIO CLEAR     60  47  61 NW7       29.69R
SAN ANTONIO    PTCLDY    60  48  64 NW6       29.71R
STINSON FIELD  CLEAR     62  49  62 NW6       29.69R
*PLEASANTON    CLEAR     62  46  55 W5        29.70S
*LA GRANGE     CLEAR     66  51  58 NW6       29.65R
*GIDDINGS      CLEAR     62  48  60 W3        29.69R
*GONZALES      CLEAR     66  48  53 SW3       29.66R
$$

TXZ163>164-176>182-195>201-210>213-226-227-235-240400-
SOUTHEAST TEXAS

CITY           SKY/WX    TMP DP  RH WIND       PRES   REMARKS
COLLEGE STN    CLEAR     66  48  52 W12G30    29.66R
*BRYAN         CLEAR     66  49  55 NW13G21   29.66R
*CALDWELL      CLEAR     63  48  59 CALM      29.67R
*CROCKETT      CLEAR     64  54  68 W8        29.66R
*BRENHAM       CLEAR     67  50  54 W3        29.66R
HUNTSVILLE     NOT AVBL
CONROE         CLEAR     66  53  63 SW6       29.65R
HOUSTON BUSH   CLEAR     68  56  65 SW6       29.65R
HOUSTON HOBBY  CLEAR     64  58  80 S7        29.66R
*HOUSTON SW AP CLEAR     58  56  90 S10       29.68R
PEARLAND       CLEAR     66  60  81 S8        29.68R
HOUSTON HOOKS  CLEAR     67  57  70 SW7       29.65R
ELLINGTON FLD  CLEAR     66  57  72 S8        29.68R
SUGAR LAND     CLEAR     64  57  78 SW6       29.66R
*HOUSTON EXEC  CLEAR     64 N/A N/A SW8       29.66R
*CLEVELAND MUN NOT AVBL
*WHARTON       CLEAR     61  59  91 S6        29.68R
*COLUMBUS      FAIR      63  56  77 S6        29.66R
$$

TXZ214>216-236>238-240400-
THE UPPER TEXAS COAST

CITY           SKY/WX    TMP DP  RH WIND       PRES   REMARKS
*ORANGE        CLEAR     65  62  88 SW9       29.68R
PORT ARTHUR    CLEAR     64  60  87 SW7       29.66R
GALVESTON      CLEAR     67  64  90 SW12      29.68R
ANGLETON       CLEAR     61  60  97 S5        29.68R
*BAY CITY        N/A     64  63  98 SW5       29.68R
PALACIOS       CLEAR     66  62  87 SW9       29.68R
$$

TXZ229>234-239>247-240400-
TEXAS COASTAL BEND AND RIO GRANDE PLAINS

CITY           SKY/WX    TMP DP  RH WIND       PRES   REMARKS
VICTORIA       CLEAR     64  59  83 S8        29.68R
*BEEVILLE      CLEAR     65  48  55 NW8       29.70R
ROCKPORT       CLEAR     68  60  75 S6        29.69R
*PORT ARANSAS  CLEAR     66  60  81 S8        29.69R
*PORT LAVACA   CLEAR     64  62  93 SW6       29.69R
*INGLESIDE     CLEAR     67  61  83 S5        29.69R
CORPUS CHRISTI CLEAR     65  62  90 S5        29.69R
CORPUS NAS     CLEAR     70  60  70 S12       29.69R
*ROBSTOWN      NOT AVBL
ALICE          CLEAR     63  54  72 SW6       29.70R
KINGSVILLE NAS   N/A     66  57  72 S7        29.70R
COTULLA        CLEAR     63  50  62 SW3       29.72R
*FAITH RANCH   CLEAR     66  41  39 N6        29.73R
LAREDO         CLEAR     67  53  60 E6        29.74R
$$

TXZ248>255-240400-
DEEP SOUTH TEXAS

CITY           SKY/WX    TMP DP  RH WIND       PRES   REMARKS
BROWNSVILLE    CLEAR     65  63  93 S3        29.71R FOG
PORT ISABEL    CLEAR     65  63  93 S6        29.71R
*SOUTH PADRE     N/A    N/A N/A N/A CALM      29.70R VSB 3/4
HARLINGEN      CLEAR     62  57  83 S6        29.70R
*HEBBRONVILLE  CLEAR     65  52  62 SW3       29.73R
MCALLEN        CLEAR     64  58  80 SE3       29.71R
*WESLACO       CLEAR     66  56  69 SE5       29.70R
FALFURRIAS     CLEAR     64  55  72 CALM      29.71R
EDINBURG       CLEAR     67  55  65 S3        29.70R
*ZAPATA        CLEAR     61  58  88 CALM      29.70R
$$

TXZ213>215-236>238-242>244-246-247-251-254-255-240400-
CMAN STATIONS

STATION/POSITION TIME  TEMP    WIND        PRES    WAVE
                       AIR SEA DIR/SP/G            HT/PER
                 (UTC) (F)     (DEG/KT/KT) (MB)    (FT/S)
SABINE PASS      0200   65 60  220/  7/ 13 1004.1
SEA RIM ST PARK  0200   64     220/ 11/ 14 1004.5
NORTH JETTY/GLS  0200   67 60  240/ 17/ 21   N/A
EAGLE POINT      0200   65 61  230/  9/ 11 1004.3
MORGANS POINT    0200   67     210/  8/ 12 1004.1
MISSION/ARANSAS  0200          190/ 11     1006.0
PORT O`CONNOR    0200          200/ 11/ 13   N/A
PORT ARANSAS     0200   67 63  200/  9/  9 1005.4
MALAQUITE BEACH  0200   69 67  180/ 10/ 11 1004.7
BAFFIN BAY       0200   71 80  180/ 10/ 12 1005.4
PORT ISABEL      0200   70 66  170/  5/  6 1005.7
$$

GMZ080-GMZ150>470-240400-
OFFSHORE BUOY REPORTS

STATION/POSITION TIME  TEMP    WIND        PRES    WAVE
                       AIR SEA DIR/SP/G            HT/PER
                 (UTC) (F)     (DEG/KT/KT) (MB)    (FT/S)
20 E GALVESTON   0300   65 62  210/ 12/ 14 1004.3    4/ 8
90 E PT ARANSAS  0300   74 73  210/ 10/ 12 1006.1    4/ 8
35 NE PT MANSFLD 0200   75 74  190/ 10/ 14 1005.0    5/ 8
200 E PT ISABEL  0200   75 75  200/  8/ 10 1006.2    5/ 7
$$